Location: Tucson
(32.2217°N, 110.9265°W)
Time: 20:05:27
(UTC-07:00)

A-11 Canister half - Pass Details

Date: 02 November 2021
Orbit: 1516 x 1684 km, 47.2° (Epoch: 28 November)

Event Time Altitude Azimuth Distance (km) Brightness Sun altitude
Rises 20:22:19 0° 303° (WNW) 4,915 12.4 -36.4°
Reaches altitude 10° 20:25:48 10° 311° (NW) 3,911 11.6 -37.1°
Enters shadow 20:33:57 42° 3° (N) 2,201 9.7 -38.8°
